Location: The Saddle
(36.8333°N, 80.3417°W)
Time: 16:32:35
(UTC-05:00)

Explorer 7 - Visible Passes

Search period start: 30 January 2023 00:00
Search period end: 09 February 2023 00:00
Orbit: 480 x 660 km, 50.3° (Epoch: 30 January)

Date Brightness Start Highest point End Pass type
(mag) Time Alt. Az. Time Alt. Az. Time Alt. Az.
30 Jan 7.2 19:24:03 10° NW 19:28:43 59° NE 19:29:21 54° ENE visible
30 Jan 10.2 21:04:57 10° WNW 21:05:27 12° W 21:05:27 12° W visible
31 Jan 7.0 19:25:00 10° NW 19:29:44 85° NE 19:31:05 48° ESE visible
31 Jan 10.2 21:06:46 10° W 21:07:12 11° W 21:07:12 11° W visible
01 Feb 7.5 19:26:00 10° WNW 19:30:41 64° SW 19:33:03 29° SSE visible
02 Feb 8.3 19:27:08 10° WNW 19:31:34 42° SW 19:35:20 14° SSE visible
03 Feb 9.1 19:28:26 10° WNW 19:32:25 27° SW 19:36:26 10° S visible
04 Feb 9.9 19:30:04 10° W 19:33:11 18° SW 19:36:21 10° S visible
05 Feb 10.3 19:32:47 10° WSW 19:33:55 11° SW 19:35:03 10° SW visible
